CWAE

Whistler Airport

British Columbia, Canada
Issued Wind Visibility Ceiling Temperature Dew Point Humidity Barometer
Aug-20
22:00 UTC
180°
3 KTS
15 miles Broken
14,000' AGL
23° C
73° F
C
45° F
36% 30.1" Hg
1018.8 hPa
VFR
Aug-20
21:00 UTC
230°
2 KTS
15 miles Broken
14,000' AGL
23° C
73° F
C
45° F
36% 30.11" Hg
1018.9 hPa
VFR
Aug-20
20:00 UTC
230°
2 KTS
15 miles Broken
23,000' AGL
22° C
72° F
C
46° F
41% 30.12" Hg
1019.3 hPa
VFR
Aug-20
19:00 UTC
180°
5 KTS
15 miles Broken
7,600' AGL
19° C
66° F
C
45° F
46% 30.13" Hg
1019.9 hPa
VFR
Aug-20
18:00 UTC
180°
4 KTS
15 miles Broken
5,800' AGL
18° C
64° F
C
45° F
49% 30.14" Hg
1020.3 hPa
VFR
Aug-20
17:00 UTC
180°
2 KTS
15 miles Overcast
5,500' AGL
17° C
63° F
C
45° F
52% 30.15" Hg
1020.5 hPa
VFR
Aug-20
16:00 UTC
180°
2 KTS
15 miles Overcast
5,200' AGL
15° C
59° F
C
45° F
59% 30.15" Hg
1020.8 hPa
VFR
Aug-20
15:00 UTC
15 miles Overcast
5,700' AGL
14° C
57° F
C
43° F
59% 30.15" Hg
1020.5 hPa
VFR
Aug-20
14:00 UTC
180°
3 KTS
15 miles Overcast
5,600' AGL
13° C
55° F
C
43° F
63% 30.15" Hg
1020.4 hPa
VFR
Aug-20
13:00 UTC
15 miles Overcast
5,700' AGL
13° C
55° F
C
43° F
63% 30.14" Hg
1020.2 hPa
VFR
Aug-20
01:00 UTC
230°
3 KTS
15 miles   20° C
68° F
C
43° F
40% 30.13" Hg
1020.2 hPa
VFR
Aug-20
00:00 UTC
230°
3 KTS
15 miles   21° C
70° F
C
43° F
38% 30.14" Hg
1020.4 hPa
VFR